La Plata, MO

7:09 AM CST on February 11, 2016 (GMT -0600)
Kirksville Regional

Weather History for KIRK - September, 2013

Change the Weather History Date:

Monday, September 30, 2013

  Actual Average Record
Temperature  
Mean Temperature 61 °F 59 °F  
Max Temperature 77 °F 70 °F 90 °F (1952)
Min Temperature 44 °F 47 °F 31 °F (1924)
Degree Days  
Heating Degree Days 4 8  
Month to date heating degree days 57 100  
Since 1 July heating degree days 70 107  
Cooling Degree Days 0 1  
Month to date cooling degree days 186 83  
Year to date cooling degree days 996 927  
Growing Degree Days 12 (Base 50)    
Moisture  
Dew Point 52 °F    
Average Humidity 70    
Maximum Humidity 90    
Minimum Humidity 50    
Precipitation  
Precipitation 0.00 in 0.10 in 0.85 in (1961)
Month to date precipitation 1.69 4.11  
Year to date precipitation 31.58 31.52  
Sea Level Pressure  
Sea Level Pressure 29.92 in    
Wind  
Wind Speed 7 mph (South)    
Max Wind Speed 18 mph    
Max Gust Speed 24 mph    
Visibility 10 miles    
Events      
T = Trace of Precipitation, MM = Missing Value Source: NWS Daily Summary

Daily Weather History Graph

Daily Weather History Graph

Search for Another Location

Airport or City:

Trip Planner

Search our weather history database for the weather conditions in past years. The results will help you decide how hot, cold, wet, or windy it might be!

Date:

Astronomy

Sep. 30, 2013 Rise Set
Actual Time 7:05 AM CDT 6:53 PM CDT
Civil Twilight 6:38 AM CDT 7:20 PM CDT
Nautical Twilight 6:07 AM CDT 7:52 PM CDT
Astronomical Twilight 5:35 AM CDT 8:23 PM CDT
Moon 2:43 AM CDT (9/30) 4:24 PM CDT (9/30)
Length of Visible Light 12h 41m
Length of Day
11h 47m
Waning Crescent, 19% of the Moon is Illuminated
Sep 30
Waning Crescent
Oct 4
New
Oct 11
First Quarter
Oct 18
Full
Oct 26
Last Quarter

Hourly Weather History & Observations

Time (CDT) Temp. Windchill Dew Point Humidity Pressure Visibility Wind Dir Wind Speed Gust Speed Precip Events Conditions
12:55 AM 52.0 °F - 46.0 °F 80% 29.99 in 10.0 mi South 3.5 mph - N/A   Clear
1:55 AM 51.1 °F - 45.0 °F 80% 29.97 in 10.0 mi SSE 4.6 mph - N/A   Clear
2:55 AM 50.0 °F - 45.0 °F 83% 29.96 in 10.0 mi SSE 4.6 mph - N/A   Clear
3:55 AM 48.9 °F - 44.1 °F 83% 29.96 in 10.0 mi Calm Calm - N/A   Clear
4:55 AM 46.0 °F 42.5 °F 42.1 °F 86% 29.96 in 10.0 mi SSE 6.9 mph - N/A   Clear
5:55 AM 48.9 °F - 43.0 °F 80% 29.97 in 9.0 mi SSW 3.5 mph - N/A   Clear
6:55 AM 46.9 °F - 42.1 °F 83% 29.96 in 10.0 mi SSE 3.5 mph - N/A   Clear
7:55 AM 51.1 °F - 45.0 °F 80% 29.96 in 10.0 mi SSE 5.8 mph - N/A   Clear
8:55 AM 59.0 °F - 50.0 °F 72% 29.96 in 10.0 mi South 5.8 mph - N/A   Clear
9:55 AM 66.0 °F - 51.1 °F 59% 29.95 in 10.0 mi South 8.1 mph - N/A   Clear
10:55 AM 71.1 °F - 54.0 °F 55% 29.94 in 10.0 mi South 10.4 mph - N/A   Clear
11:55 AM 73.0 °F - 55.0 °F 53% 29.93 in 10.0 mi South 13.8 mph 19.6 mph N/A   Clear
12:55 PM 75.0 °F - 55.9 °F 51% 29.91 in 10.0 mi South 10.4 mph 17.3 mph N/A   Clear
1:55 PM 75.9 °F - 57.9 °F 54% 29.89 in 10.0 mi South 9.2 mph - N/A   Clear
2:55 PM 77.0 °F - 57.9 °F 52% 29.87 in 10.0 mi SSW 11.5 mph 19.6 mph N/A   Clear
3:55 PM 77.0 °F - 57.0 °F 50% 29.87 in 10.0 mi South 11.5 mph 19.6 mph N/A   Clear
4:55 PM 75.0 °F - 57.0 °F 53% 29.87 in 10.0 mi South 9.2 mph - N/A   Clear
5:55 PM 73.0 °F - 57.9 °F 59% 29.87 in 10.0 mi South 6.9 mph - N/A   Clear
6:55 PM 66.0 °F - 57.9 °F 75% 29.88 in 10.0 mi South 5.8 mph - N/A   Clear
7:55 PM 62.1 °F - 57.9 °F 86% 29.88 in 10.0 mi South 6.9 mph - N/A   Clear
8:55 PM 63.0 °F - 59.0 °F 87% 29.87 in 10.0 mi South 9.2 mph - N/A   Clear
9:55 PM 62.1 °F - 59.0 °F 90% 29.88 in 10.0 mi South 6.9 mph - N/A   Clear
10:55 PM 60.1 °F - 57.9 °F 93% 29.87 in 10.0 mi South 8.1 mph - N/A   Clear
11:55 PM 62.1 °F - 59.0 °F 90% 29.88 in 10.0 mi South 8.1 mph - N/A   Clear